User: anonymous   Login
Location: Berkeley
(37.8716°N, 122.2727°W)
Time: 08:51:31
(UTC-07:00)
Language:

EO-79 - Orbit

View from above orbital plane
View from above orbital plane
View from above satellite
View from above satellite

Ground track
Ground track

The orbit data is extracted from the following two-line orbital elements,

1 40025U 14033R   19113.31622355  .00000280  00000-0  35866-4 0  9996
2 40025  97.9065  33.0908 0011080 242.5666 117.4425 14.88908422262935
Epoch (UTC): 23 April 2019 07:35:21
Eccentricity: 0.0011080
inclination: 97.9065°
perigee height: 593 km
apogee height: 609 km
right ascension of ascending node: 33.0908°
argument of perigee: 242.5666°
revolutions per day: 14.88908422
mean anomaly at epoch: 117.4425°
orbit number at epoch: 26293

The dashed part of the orbit path shows where the satellite is in the earth's shadow,  

DLR